Home   Weather   Târgu Mureş   Past weeks

Flag for Romania Past Weather in Târgu Mureş, Romania — Yesterday and Last 2 Weeks

Now
59 °F

Sprinkles. Broken clouds.


Feels Like: 60 °F
Forecast: 52 / 65 °F
Wind: 3 mph from Northeast

Location: Tirgu Mures Airport

Current Time: May 25, 2017 at 5:19:13 pm

Latest Report: May 25, 2017 at 4:30 pm


Visibility: 4 mi

Pressure: 29.95 "Hg

Humidity: 94%

Dew Point: 57 °F

Location of Târgu MureşLocation

Past Weather in Târgu Mureş — Graph

°F

Târgu Mureş Temperature Yesterday

Maximum temperature yesterday: 72 °F (at 3:00 pm)
Minimum temperature yesterday: 50 °F (at 5:30 am)
Average temperature yesterday: 61 °F

High & Low Weather Summary for the Past Weeks

 TemperatureHumidityPressure
High77 °F (May 19, 6:00 pm)100% (May 13, 4:00 am)30.27 "Hg (May 13, 4:00 am)
Low30 °F (May 11, 6:00 am)29% (May 22, 6:30 pm)29.77 "Hg (May 12, 5:00 pm)
Average61 °F72%30.00 "Hg
* Reported May 10 4:00 pm — May 25 4:00 pm, Târgu Mureş. Weather by CustomWeather, © 2017

Note: Actual official high and low records may vary slightly from our data, if they occured in-between our weather recording intervals... More about our weather records

Advertising

Târgu Mureş Weather History for the Previous 24 Hours

Scroll right to see more
 ConditionsComfort  
Time TempWeatherWind HumidityBarometerVisibility
4:00 pm
Thu, May 25
57 °FRain showers. More clouds than sun.2 mph100%29.95 "Hg3 mi
3:30 pm61 °FLots of rain. Broken clouds.5 mph83%29.95 "Hg2 mi
3:00 pm63 °FScattered showers. Broken clouds.8 mph83%29.95 "HgN/A
2:30 pm63 °FBroken clouds.7 mph83%29.95 "HgN/A
2:00 pm64 °FBroken clouds.2 mph73%29.95 "HgN/A
1:30 pm64 °FBroken clouds.2 mph73%29.95 "HgN/A
1:00 pm64 °FBroken clouds.5 mph78%29.95 "HgN/A
12:30 pm63 °FBroken clouds.2 mph77%29.95 "HgN/A
12:00 pm63 °FBroken clouds.2 mph77%29.95 "HgN/A
11:30 am61 °FBroken clouds.3 mph83%29.95 "HgN/A
11:00 am61 °FBroken clouds.3 mph88%29.95 "HgN/A
10:30 am61 °FMore clouds than sun.3 mph88%29.95 "HgN/A
10:00 am59 °FMore clouds than sun.1 mph88%29.92 "HgN/A
9:30 am59 °FMostly cloudy.2 mph94%29.92 "Hg6 mi
9:00 am59 °FLight rain. Mostly cloudy.3 mph94%29.92 "Hg6 mi
8:30 am59 °FLight rain. Mostly cloudy.2 mph94%29.92 "Hg6 mi
8:00 am59 °FLight rain. Mostly cloudy.3 mph94%29.92 "Hg4 mi
7:30 am59 °FSprinkles. Partly sunny.No wind94%29.92 "Hg3 mi
7:00 am59 °FSprinkles. Passing clouds.2 mph94%29.92 "Hg2 mi
6:30 am57 °FFog.2 mph100%29.92 "Hg3 mi
6:00 am57 °FFog.3 mph100%29.89 "Hg2 mi
5:30 am57 °FFog.3 mph94%29.89 "Hg3 mi
5:00 am57 °FOvercast.2 mph100%29.89 "Hg3 mi
4:30 am57 °FPassing clouds.1 mph100%29.92 "Hg3 mi
4:00 am59 °FSprinkles. Passing clouds.1 mph94%29.92 "Hg4 mi
3:30 am57 °FSprinkles. Partly cloudy.1 mph100%29.92 "Hg3 mi
3:00 am57 °FSprinkles. Low clouds.2 mph100%29.92 "Hg3 mi
2:30 am59 °FSprinkles. Passing clouds.2 mph94%29.92 "Hg4 mi
2:00 am59 °FSprinkles. Overcast.5 mph94%29.92 "Hg4 mi
1:30 am59 °FPartly cloudy.1 mph94%29.92 "HgN/A
1:00 am59 °FPassing clouds.No wind94%29.95 "HgN/A
12:30 am59 °FLight rain. Overcast.No wind94%29.95 "HgN/A
12:00 am59 °FOvercast.3 mph88%29.95 "HgN/A
11:30 pm
Wed, May 24
59 °FOvercast.1 mph94%29.95 "HgN/A
11:00 pm59 °FSprinkles. Overcast.6 mph94%29.95 "Hg4 mi
10:30 pm59 °FRain. Partly cloudy.5 mph94%29.95 "Hg4 mi
10:00 pm61 °FThunderstorms. Partly cloudy.6 mph88%29.95 "HgN/A
9:30 pm61 °FThunderstorms. Passing clouds.7 mph88%29.95 "HgN/A
9:00 pm64 °FPassing clouds.6 mph73%29.92 "HgN/A
8:30 pm64 °FOvercast.1 mph73%29.92 "HgN/A
8:00 pm64 °FScattered clouds.3 mph68%29.92 "HgN/A
7:30 pm64 °FScattered clouds.3 mph73%29.92 "HgN/A
7:00 pm66 °FScattered clouds.5 mph64%29.92 "HgN/A
6:30 pm64 °FScattered clouds.6 mph64%29.92 "HgN/A
6:00 pm66 °FScattered clouds.10 mph64%29.92 "HgN/A
5:30 pm68 °FScattered clouds.12 mph60%29.92 "HgN/A
5:00 pm70 °FScattered clouds.17 mph57%29.92 "HgN/A
Weather by CustomWeather, © 2017

See weather overviewHow to use our weather pages